Year,Month,Day,Hour,Minute,Value (Times are PST for temperature in C)
2018,08,06,00,00,17.10
2018,08,06,00,01,17.10
2018,08,06,00,02,17.10
2018,08,06,00,03,17.10
2018,08,06,00,04,17.10
2018,08,06,00,05,17.10
2018,08,06,00,06,17.10
2018,08,06,00,07,17.10
2018,08,06,00,08,17.10
2018,08,06,00,09,17.10
2018,08,06,00,10,17.00
2018,08,06,00,11,17.00
2018,08,06,00,12,16.90
2018,08,06,00,13,16.90
2018,08,06,00,14,16.80
2018,08,06,00,15,16.80
2018,08,06,00,16,16.80
2018,08,06,00,17,16.70
2018,08,06,00,18,16.70
2018,08,06,00,19,16.70
2018,08,06,00,20,16.70
2018,08,06,00,21,16.70
2018,08,06,00,22,16.70
2018,08,06,00,23,16.70
2018,08,06,00,24,16.70
2018,08,06,00,25,16.70
2018,08,06,00,26,16.70
2018,08,06,00,27,16.70
2018,08,06,00,28,16.60
2018,08,06,00,29,16.60
2018,08,06,00,30,16.60
2018,08,06,00,31,16.60
2018,08,06,00,32,16.50
2018,08,06,00,33,16.40
2018,08,06,00,34,16.40
2018,08,06,00,35,16.40
2018,08,06,00,36,16.40
2018,08,06,00,37,16.40
2018,08,06,00,38,16.40
2018,08,06,00,39,16.40
2018,08,06,00,40,16.30
2018,08,06,00,41,16.30
2018,08,06,00,42,16.30
2018,08,06,00,43,16.30
2018,08,06,00,44,16.30
2018,08,06,00,45,16.20
2018,08,06,00,46,16.20
2018,08,06,00,47,16.20
2018,08,06,00,48,16.20
2018,08,06,00,49,16.10
2018,08,06,00,50,16.10
2018,08,06,00,51,16.10
2018,08,06,00,52,16.10
2018,08,06,00,53,16.10
2018,08,06,00,54,16.10
2018,08,06,00,55,16.10
2018,08,06,00,56,16.10
2018,08,06,00,57,16.10
2018,08,06,00,58,16.00
2018,08,06,00,59,15.90
2018,08,06,01,00,15.90
2018,08,06,01,01,15.90
2018,08,06,01,02,15.90
2018,08,06,01,03,15.90
2018,08,06,01,04,15.90
2018,08,06,01,05,15.80
2018,08,06,01,06,15.80
2018,08,06,01,07,15.80
2018,08,06,01,08,15.80
2018,08,06,01,09,15.80
2018,08,06,01,10,15.80
2018,08,06,01,11,15.80
2018,08,06,01,12,15.80
2018,08,06,01,13,15.80
2018,08,06,01,14,15.80
2018,08,06,01,15,15.80
2018,08,06,01,16,15.80
2018,08,06,01,17,15.70
2018,08,06,01,18,15.70
2018,08,06,01,19,15.70
2018,08,06,01,20,15.80
2018,08,06,01,21,15.80
2018,08,06,01,22,15.80
2018,08,06,01,23,15.90
2018,08,06,01,24,15.90
2018,08,06,01,25,15.90
2018,08,06,01,26,15.90
2018,08,06,01,27,15.90
2018,08,06,01,28,15.90
2018,08,06,01,29,15.90
2018,08,06,01,30,15.90
2018,08,06,01,31,15.90
2018,08,06,01,32,15.90
2018,08,06,01,33,15.90
2018,08,06,01,34,15.90
2018,08,06,01,35,15.90
2018,08,06,01,36,15.90
2018,08,06,01,37,15.90
2018,08,06,01,38,15.80
2018,08,06,01,39,15.80
2018,08,06,01,40,15.80
2018,08,06,01,41,15.80
2018,08,06,01,42,15.70
2018,08,06,01,43,15.60
2018,08,06,01,44,15.40
2018,08,06,01,45,15.30
2018,08,06,01,46,15.10
2018,08,06,01,47,15.00
2018,08,06,01,48,14.80
2018,08,06,01,49,14.70
2018,08,06,01,50,14.60
2018,08,06,01,51,14.50
2018,08,06,01,52,14.50
2018,08,06,01,53,14.40
2018,08,06,01,54,14.30
2018,08,06,01,55,14.20
2018,08,06,01,56,14.20
2018,08,06,01,57,14.10
2018,08,06,01,58,14.00
2018,08,06,01,59,14.00
2018,08,06,02,00,13.90
2018,08,06,02,01,13.90
2018,08,06,02,02,13.90
2018,08,06,02,03,13.80
2018,08,06,02,04,13.80
2018,08,06,02,05,13.80
2018,08,06,02,06,13.80
2018,08,06,02,07,13.80
2018,08,06,02,08,13.80
2018,08,06,02,09,13.80
2018,08,06,02,10,13.90
2018,08,06,02,11,13.90
2018,08,06,02,12,13.90
2018,08,06,02,13,14.00
2018,08,06,02,14,14.00
2018,08,06,02,15,14.10
2018,08,06,02,16,14.10
2018,08,06,02,17,14.20
2018,08,06,02,18,14.20
2018,08,06,02,19,14.20
2018,08,06,02,20,14.20
2018,08,06,02,21,14.20
2018,08,06,02,22,14.30
2018,08,06,02,23,14.30
2018,08,06,02,24,14.40
2018,08,06,02,25,14.40
2018,08,06,02,26,14.40
2018,08,06,02,27,14.40
2018,08,06,02,28,14.40
2018,08,06,02,29,14.40
2018,08,06,02,30,14.40
2018,08,06,02,31,14.40
2018,08,06,02,32,14.40
2018,08,06,02,33,14.30
2018,08,06,02,34,14.30
2018,08,06,02,35,14.30
2018,08,06,02,36,14.20
2018,08,06,02,37,14.20
2018,08,06,02,38,14.20
2018,08,06,02,39,14.20
2018,08,06,02,40,14.20
2018,08,06,02,41,14.30
2018,08,06,02,42,14.30
2018,08,06,02,43,14.30
2018,08,06,02,44,14.30
2018,08,06,02,45,14.40
2018,08,06,02,46,14.40
2018,08,06,02,47,14.40
2018,08,06,02,48,14.40
2018,08,06,02,49,14.40
2018,08,06,02,50,14.40
2018,08,06,02,51,14.40
2018,08,06,02,52,14.40
2018,08,06,02,53,14.40
2018,08,06,02,54,14.40
2018,08,06,02,55,14.40
2018,08,06,02,56,14.50
2018,08,06,02,57,14.50
2018,08,06,02,58,14.50
2018,08,06,02,59,14.60
2018,08,06,03,00,14.60
2018,08,06,03,01,14.70
2018,08,06,03,02,14.70
2018,08,06,03,03,14.80
2018,08,06,03,04,14.80
2018,08,06,03,05,14.80
2018,08,06,03,06,14.90
2018,08,06,03,07,14.90
2018,08,06,03,08,14.90
2018,08,06,03,09,15.00
2018,08,06,03,10,15.00
2018,08,06,03,11,15.00
2018,08,06,03,12,15.00
2018,08,06,03,13,15.00
2018,08,06,03,14,15.00
2018,08,06,03,15,15.00
2018,08,06,03,16,15.00
2018,08,06,03,17,15.00
2018,08,06,03,18,14.90
2018,08,06,03,19,14.80
2018,08,06,03,20,14.70
2018,08,06,03,21,14.60
2018,08,06,03,22,14.50
2018,08,06,03,23,14.50
2018,08,06,03,24,14.40
2018,08,06,03,25,14.30
2018,08,06,03,26,14.20
2018,08,06,03,27,14.10
2018,08,06,03,28,14.00
2018,08,06,03,29,13.90
2018,08,06,03,30,13.70
2018,08,06,03,31,13.70
2018,08,06,03,32,13.60
2018,08,06,03,33,13.60
2018,08,06,03,34,13.50
2018,08,06,03,35,13.50
2018,08,06,03,36,13.40
2018,08,06,03,37,13.30
2018,08,06,03,38,13.30
2018,08,06,03,39,13.30
2018,08,06,03,40,13.30
2018,08,06,03,41,13.30
2018,08,06,03,42,13.20
2018,08,06,03,43,13.20
2018,08,06,03,44,13.20
2018,08,06,03,45,13.10
2018,08,06,03,46,13.10
2018,08,06,03,47,13.10
2018,08,06,03,48,13.10
2018,08,06,03,49,13.00
2018,08,06,03,50,13.00
2018,08,06,03,51,13.00
2018,08,06,03,52,13.00
2018,08,06,03,53,12.90
2018,08,06,03,54,12.90
2018,08,06,03,55,12.90
2018,08,06,03,56,12.80
2018,08,06,03,57,12.80
2018,08,06,03,58,12.80
2018,08,06,03,59,12.80
2018,08,06,04,00,12.80
2018,08,06,04,01,12.80
2018,08,06,04,02,12.80
2018,08,06,04,03,12.70
2018,08,06,04,04,12.70
2018,08,06,04,05,12.70
2018,08,06,04,06,12.70
2018,08,06,04,07,12.70
2018,08,06,04,08,12.70
2018,08,06,04,09,12.60
2018,08,06,04,10,12.60
2018,08,06,04,11,12.60
2018,08,06,04,12,12.60
2018,08,06,04,13,12.60
2018,08,06,04,14,12.60
2018,08,06,04,15,12.50
2018,08,06,04,16,12.50
2018,08,06,04,17,12.50
2018,08,06,04,18,12.50
2018,08,06,04,19,12.60
2018,08,06,04,20,12.60
2018,08,06,04,21,12.60
2018,08,06,04,22,12.60
2018,08,06,04,23,12.60
2018,08,06,04,24,12.70
2018,08,06,04,25,12.70
2018,08,06,04,26,12.70
2018,08,06,04,27,12.70
2018,08,06,04,28,12.70
2018,08,06,04,29,12.70
2018,08,06,04,30,12.70
2018,08,06,04,31,12.70
2018,08,06,04,32,12.70
2018,08,06,04,33,12.70
2018,08,06,04,34,12.70
2018,08,06,04,35,12.70
2018,08,06,04,36,12.70
2018,08,06,04,37,12.70
2018,08,06,04,38,12.70
2018,08,06,04,39,12.70
2018,08,06,04,40,12.60
2018,08,06,04,41,12.60
2018,08,06,04,42,12.60
2018,08,06,04,43,12.60
2018,08,06,04,44,12.60
2018,08,06,04,45,12.60
2018,08,06,04,46,12.60
2018,08,06,04,47,12.60
2018,08,06,04,48,12.60
2018,08,06,04,49,12.70
2018,08,06,04,50,12.70
2018,08,06,04,51,12.70
2018,08,06,04,52,12.80
2018,08,06,04,53,12.80
2018,08,06,04,54,12.80
2018,08,06,04,55,12.80
2018,08,06,04,56,12.80
2018,08,06,04,57,12.80
2018,08,06,04,58,12.80
2018,08,06,04,59,12.80
2018,08,06,05,00,12.80
2018,08,06,05,01,12.80
2018,08,06,05,02,12.80
2018,08,06,05,03,12.80
2018,08,06,05,04,12.70
2018,08,06,05,05,12.70
2018,08,06,05,06,12.70
2018,08,06,05,07,12.70
2018,08,06,05,08,12.70
2018,08,06,05,09,12.70
2018,08,06,05,10,12.70
2018,08,06,05,11,12.60
2018,08,06,05,12,12.60
2018,08,06,05,13,12.60
2018,08,06,05,14,12.60
2018,08,06,05,15,12.60
2018,08,06,05,16,12.60
2018,08,06,05,17,12.60
2018,08,06,05,18,12.60
2018,08,06,05,19,12.60
2018,08,06,05,20,12.60
2018,08,06,05,21,12.60
2018,08,06,05,22,12.50
2018,08,06,05,23,12.50
2018,08,06,05,24,12.50
2018,08,06,05,25,12.50
2018,08,06,05,26,12.50
2018,08,06,05,27,12.50
2018,08,06,05,28,12.50
2018,08,06,05,29,12.50
2018,08,06,05,30,12.50
2018,08,06,05,31,12.40
2018,08,06,05,32,12.40
2018,08,06,05,33,12.40
2018,08,06,05,34,12.40
2018,08,06,05,35,12.40
2018,08,06,05,36,12.40
2018,08,06,05,37,12.40
2018,08,06,05,38,12.40
2018,08,06,05,39,12.40
2018,08,06,05,40,12.40
2018,08,06,05,41,12.40
2018,08,06,05,42,12.40
2018,08,06,05,43,12.40
2018,08,06,05,44,12.40
2018,08,06,05,45,12.40
2018,08,06,05,46,12.40
2018,08,06,05,47,12.40
2018,08,06,05,48,12.30
2018,08,06,05,49,12.30
2018,08,06,05,50,12.30
2018,08,06,05,51,12.30
2018,08,06,05,52,12.30
2018,08,06,05,53,12.40
2018,08,06,05,54,12.30
2018,08,06,05,55,12.30
2018,08,06,05,56,12.30
2018,08,06,05,57,12.30
2018,08,06,05,58,12.30
2018,08,06,05,59,12.30
2018,08,06,06,00,12.30
2018,08,06,06,01,12.30
2018,08,06,06,02,12.30
2018,08,06,06,03,12.30
2018,08,06,06,04,12.30
2018,08,06,06,05,12.30
2018,08,06,06,06,12.30
2018,08,06,06,07,12.30
2018,08,06,06,08,12.30
2018,08,06,06,09,12.30
2018,08,06,06,10,12.30
2018,08,06,06,11,12.30
2018,08,06,06,12,12.30
2018,08,06,06,13,12.30
2018,08,06,06,14,12.30
2018,08,06,06,15,12.30
2018,08,06,06,16,12.30
2018,08,06,06,17,12.30
2018,08,06,06,18,12.30
2018,08,06,06,19,12.30
2018,08,06,06,20,12.30
2018,08,06,06,21,12.30
2018,08,06,06,22,12.30
2018,08,06,06,23,12.30
2018,08,06,06,24,12.30
2018,08,06,06,25,12.30
2018,08,06,06,26,12.40
2018,08,06,06,27,12.40
2018,08,06,06,28,12.40
2018,08,06,06,29,12.40
2018,08,06,06,30,12.50
2018,08,06,06,31,12.50
2018,08,06,06,32,12.50
2018,08,06,06,33,12.50
2018,08,06,06,34,12.60
2018,08,06,06,35,12.60
2018,08,06,06,36,12.60
2018,08,06,06,37,12.70
2018,08,06,06,38,12.70
2018,08,06,06,39,12.70
2018,08,06,06,40,12.70
2018,08,06,06,41,12.80
2018,08,06,06,42,12.80
2018,08,06,06,43,12.80
2018,08,06,06,44,12.80
2018,08,06,06,45,12.80
2018,08,06,06,46,12.80
2018,08,06,06,47,12.80
2018,08,06,06,48,12.90
2018,08,06,06,49,13.00
2018,08,06,06,50,13.00
2018,08,06,06,51,13.10
2018,08,06,06,52,13.20
2018,08,06,06,53,13.20
2018,08,06,06,54,13.30
2018,08,06,06,55,13.30
2018,08,06,06,56,13.30
2018,08,06,06,57,13.40
2018,08,06,06,58,13.40
2018,08,06,06,59,13.50
2018,08,06,07,00,13.50
2018,08,06,07,01,13.60
2018,08,06,07,02,13.60
2018,08,06,07,03,13.60
2018,08,06,07,04,13.70
2018,08,06,07,05,13.70
2018,08,06,07,06,13.80
2018,08,06,07,07,13.90
2018,08,06,07,08,14.00
2018,08,06,07,09,14.00
2018,08,06,07,10,14.10
2018,08,06,07,11,14.10
2018,08,06,07,12,14.10
2018,08,06,07,13,14.10
2018,08,06,07,14,14.20
2018,08,06,07,15,14.20
2018,08,06,07,16,14.20
2018,08,06,07,17,14.20
2018,08,06,07,18,14.20
2018,08,06,07,19,14.20
2018,08,06,07,20,14.20
2018,08,06,07,21,14.30
2018,08,06,07,22,14.30
2018,08,06,07,23,14.30
2018,08,06,07,24,14.40
2018,08,06,07,25,14.40
2018,08,06,07,26,14.40
2018,08,06,07,27,14.40
2018,08,06,07,28,14.30
2018,08,06,07,29,14.20
2018,08,06,07,30,14.20
2018,08,06,07,31,14.10
2018,08,06,07,32,14.10
2018,08,06,07,33,14.10
2018,08,06,07,34,14.00
2018,08,06,07,35,14.00
2018,08,06,07,36,13.90
2018,08,06,07,37,13.80
2018,08,06,07,38,13.80
2018,08,06,07,39,13.70
2018,08,06,07,40,13.70
2018,08,06,07,41,13.70
2018,08,06,07,42,13.70
2018,08,06,07,43,13.60
2018,08,06,07,44,13.60
2018,08,06,07,45,13.60
2018,08,06,07,46,13.60
2018,08,06,07,47,13.60
2018,08,06,07,48,13.60
2018,08,06,07,49,13.60
2018,08,06,07,50,13.70
2018,08,06,07,51,13.70
2018,08,06,07,52,13.70
2018,08,06,07,53,13.70
2018,08,06,07,54,13.70
2018,08,06,07,55,13.80
2018,08,06,07,56,13.80
2018,08,06,07,57,13.90
2018,08,06,07,58,14.00
2018,08,06,07,59,14.10
2018,08,06,08,00,14.20
2018,08,06,08,01,14.20
2018,08,06,08,02,14.30
2018,08,06,08,03,14.40
2018,08,06,08,04,14.50
2018,08,06,08,05,14.60
2018,08,06,08,06,14.70
2018,08,06,08,07,14.80
2018,08,06,08,08,14.90
2018,08,06,08,09,15.00
2018,08,06,08,10,15.00
2018,08,06,08,11,15.10
2018,08,06,08,12,15.20
2018,08,06,08,13,15.20
2018,08,06,08,14,15.30
2018,08,06,08,15,15.30
2018,08,06,08,16,15.40
2018,08,06,08,17,15.40
2018,08,06,08,18,15.50
2018,08,06,08,19,15.60
2018,08,06,08,20,15.60
2018,08,06,08,21,15.70
2018,08,06,08,22,15.80
2018,08,06,08,23,15.80
2018,08,06,08,24,15.80
2018,08,06,08,25,15.80
2018,08,06,08,26,15.80
2018,08,06,08,27,15.80
2018,08,06,08,28,15.90
2018,08,06,08,29,16.00
2018,08,06,08,30,16.10
2018,08,06,08,31,16.10
2018,08,06,08,32,16.20
2018,08,06,08,33,16.30
2018,08,06,08,34,16.30
2018,08,06,08,35,16.40
2018,08,06,08,36,16.40
2018,08,06,08,37,16.50
2018,08,06,08,38,16.60
2018,08,06,08,39,16.60
2018,08,06,08,40,16.70
2018,08,06,08,41,16.70
2018,08,06,08,42,16.70
2018,08,06,08,43,16.80
2018,08,06,08,44,16.80
2018,08,06,08,45,16.90
2018,08,06,08,46,16.90
2018,08,06,08,47,17.00
2018,08,06,08,48,17.10
2018,08,06,08,49,17.20
2018,08,06,08,50,17.30
2018,08,06,08,51,17.40
2018,08,06,08,52,17.50
2018,08,06,08,53,17.50
2018,08,06,08,54,17.60
2018,08,06,08,55,17.70
2018,08,06,08,56,17.80
2018,08,06,08,57,17.90
2018,08,06,08,58,17.90
2018,08,06,08,59,18.10
2018,08,06,09,00,18.10
2018,08,06,09,01,18.20
2018,08,06,09,02,18.30
2018,08,06,09,03,18.30
2018,08,06,09,04,18.40
2018,08,06,09,05,18.40
2018,08,06,09,06,18.40
2018,08,06,09,07,18.50
2018,08,06,09,08,18.50
2018,08,06,09,09,18.50
2018,08,06,09,10,18.50
2018,08,06,09,11,18.50
2018,08,06,09,12,18.50
2018,08,06,09,13,18.50
2018,08,06,09,14,18.50
2018,08,06,09,15,18.40
2018,08,06,09,16,18.40
2018,08,06,09,17,18.40
2018,08,06,09,18,18.50
2018,08,06,09,19,18.50
2018,08,06,09,20,18.60
2018,08,06,09,21,18.70
2018,08,06,09,22,18.80
2018,08,06,09,23,18.80
2018,08,06,09,24,18.90
2018,08,06,09,25,18.90
2018,08,06,09,26,18.90
2018,08,06,09,27,18.80
2018,08,06,09,28,18.80
2018,08,06,09,29,18.70
2018,08,06,09,30,18.60
2018,08,06,09,31,18.60
2018,08,06,09,32,18.50
2018,08,06,09,33,18.40
2018,08,06,09,34,18.40
2018,08,06,09,35,18.30
2018,08,06,09,36,18.30
2018,08,06,09,37,18.30
2018,08,06,09,38,18.30
2018,08,06,09,39,18.20
2018,08,06,09,40,18.20
2018,08,06,09,41,18.20
2018,08,06,09,42,18.20
2018,08,06,09,43,18.20
2018,08,06,09,44,18.20
2018,08,06,09,45,18.20
2018,08,06,09,46,18.30
2018,08,06,09,47,18.20
2018,08,06,09,48,18.20
2018,08,06,09,49,18.20
2018,08,06,09,50,18.20
2018,08,06,09,51,18.20
2018,08,06,09,52,18.20
2018,08,06,09,53,18.20
2018,08,06,09,54,18.20
2018,08,06,09,55,18.20
2018,08,06,09,56,18.20
2018,08,06,09,57,18.20
2018,08,06,09,58,18.20
2018,08,06,09,59,18.10
2018,08,06,10,00,18.00
2018,08,06,10,01,17.90
2018,08,06,10,02,17.90
2018,08,06,10,03,17.90
2018,08,06,10,04,17.90
2018,08,06,10,05,17.90
2018,08,06,10,06,17.90
2018,08,06,10,07,17.90
2018,08,06,10,08,17.90
2018,08,06,10,09,18.00
2018,08,06,10,10,18.10
2018,08,06,10,11,18.00
2018,08,06,10,12,18.10
2018,08,06,10,13,18.20
2018,08,06,10,14,18.20
2018,08,06,10,15,18.20
2018,08,06,10,16,18.20
2018,08,06,10,17,18.20
2018,08,06,10,18,18.30
2018,08,06,10,19,18.40
2018,08,06,10,20,18.50
2018,08,06,10,21,18.60
2018,08,06,10,22,18.70
2018,08,06,10,23,18.90
2018,08,06,10,24,18.90
2018,08,06,10,25,18.90
2018,08,06,10,26,18.80
2018,08,06,10,27,18.80
2018,08,06,10,28,18.70
2018,08,06,10,29,18.60
2018,08,06,10,30,18.50
2018,08,06,10,31,18.40
2018,08,06,10,32,18.20
2018,08,06,10,33,18.00
2018,08,06,10,34,17.90
2018,08,06,10,35,17.70
2018,08,06,10,36,17.70
2018,08,06,10,37,17.80
2018,08,06,10,38,17.90
2018,08,06,10,39,17.90
2018,08,06,10,40,18.00
2018,08,06,10,41,18.10
2018,08,06,10,42,18.10
2018,08,06,10,43,18.10
2018,08,06,10,44,18.10
2018,08,06,10,45,18.10
2018,08,06,10,46,18.10
2018,08,06,10,47,18.10
2018,08,06,10,48,18.10
2018,08,06,10,49,18.10
2018,08,06,10,50,18.10
2018,08,06,10,51,18.10
2018,08,06,10,52,18.00
2018,08,06,10,53,17.90
2018,08,06,10,54,17.90
2018,08,06,10,55,17.90
2018,08,06,10,56,17.90
2018,08,06,10,57,17.80
2018,08,06,10,58,17.80
2018,08,06,10,59,17.80
2018,08,06,11,00,17.90
2018,08,06,11,01,17.90
2018,08,06,11,02,18.10
2018,08,06,11,03,18.20
2018,08,06,11,04,18.40
2018,08,06,11,05,18.60
2018,08,06,11,06,18.70
2018,08,06,11,07,18.90
2018,08,06,11,08,18.90
2018,08,06,11,09,19.10
2018,08,06,11,10,19.10
2018,08,06,11,11,19.20
2018,08,06,11,12,19.20
2018,08,06,11,13,19.10
2018,08,06,11,14,19.10
2018,08,06,11,15,19.10
2018,08,06,11,16,19.20
2018,08,06,11,17,19.20
2018,08,06,11,18,19.20
2018,08,06,11,19,19.20
2018,08,06,11,20,19.20
2018,08,06,11,21,19.30
2018,08,06,11,22,19.30
2018,08,06,11,23,19.40
2018,08,06,11,24,19.50
2018,08,06,11,25,19.60
2018,08,06,11,26,19.70
2018,08,06,11,27,19.60
2018,08,06,11,28,19.60
2018,08,06,11,29,19.50
2018,08,06,11,30,19.50
2018,08,06,11,31,19.60
2018,08,06,11,32,19.50
2018,08,06,11,33,19.50
2018,08,06,11,34,19.60
2018,08,06,11,35,19.60
2018,08,06,11,36,19.70
2018,08,06,11,37,19.80
2018,08,06,11,38,20.00
2018,08,06,11,39,20.20
2018,08,06,11,40,20.40
2018,08,06,11,41,20.60
2018,08,06,11,42,20.70
2018,08,06,11,43,20.80
2018,08,06,11,44,20.80
2018,08,06,11,45,20.90
2018,08,06,11,46,20.80
2018,08,06,11,47,20.80
2018,08,06,11,48,20.90
2018,08,06,11,49,21.00
2018,08,06,11,50,21.10
2018,08,06,11,51,21.20
2018,08,06,11,52,21.30
2018,08,06,11,53,21.40
2018,08,06,11,54,21.60
2018,08,06,11,55,21.60
2018,08,06,11,56,21.70
2018,08,06,11,57,21.80
2018,08,06,11,58,22.00
2018,08,06,11,59,22.10
2018,08,06,12,00,22.20
2018,08,06,12,01,22.20
2018,08,06,12,02,22.20
2018,08,06,12,03,22.20
2018,08,06,12,04,22.20
2018,08,06,12,05,22.30
2018,08,06,12,06,22.40
2018,08,06,12,07,22.60
2018,08,06,12,08,22.60
2018,08,06,12,09,22.60
2018,08,06,12,10,22.60
2018,08,06,12,11,22.60
2018,08,06,12,12,22.60
2018,08,06,12,13,22.60
2018,08,06,12,14,22.60
2018,08,06,12,15,22.60
2018,08,06,12,16,22.70
2018,08,06,12,17,22.80
2018,08,06,12,18,22.80
2018,08,06,12,19,22.80
2018,08,06,12,20,22.80
2018,08,06,12,21,22.80
2018,08,06,12,22,22.90
2018,08,06,12,23,22.90
2018,08,06,12,24,22.90
2018,08,06,12,25,23.00
2018,08,06,12,26,23.00
2018,08,06,12,27,22.90
2018,08,06,12,28,22.90
2018,08,06,12,29,23.00
2018,08,06,12,30,23.10
2018,08,06,12,31,23.00
2018,08,06,12,32,22.90
2018,08,06,12,33,22.90
2018,08,06,12,34,22.70
2018,08,06,12,35,22.70
2018,08,06,12,36,22.70
2018,08,06,12,37,22.70
2018,08,06,12,38,22.80
2018,08,06,12,39,22.80
2018,08,06,12,40,22.80
2018,08,06,12,41,22.80
2018,08,06,12,42,22.80
2018,08,06,12,43,22.90
2018,08,06,12,44,22.90
2018,08,06,12,45,22.90
2018,08,06,12,46,22.90
2018,08,06,12,47,23.00
2018,08,06,12,48,23.10
2018,08,06,12,49,23.20
2018,08,06,12,50,23.20
2018,08,06,12,51,23.20
2018,08,06,12,52,23.30
2018,08,06,12,53,23.30
2018,08,06,12,54,23.40
2018,08,06,12,55,23.50
2018,08,06,12,56,23.60
2018,08,06,12,57,23.60
2018,08,06,12,58,23.70
2018,08,06,12,59,23.70
2018,08,06,13,00,23.70
2018,08,06,13,01,23.70
2018,08,06,13,02,23.80
2018,08,06,13,03,23.80
2018,08,06,13,04,23.70
2018,08,06,13,05,23.60
2018,08,06,13,06,23.50
2018,08,06,13,07,23.40
2018,08,06,13,08,23.30
2018,08,06,13,09,23.20
2018,08,06,13,10,23.10
2018,08,06,13,11,23.10
2018,08,06,13,12,23.20
2018,08,06,13,13,23.20
2018,08,06,13,14,23.30
2018,08,06,13,15,23.30
2018,08,06,13,16,23.30
2018,08,06,13,17,23.30
2018,08,06,13,18,23.30
2018,08,06,13,19,23.20
2018,08,06,13,20,23.20
2018,08,06,13,21,23.10
2018,08,06,13,22,23.00
2018,08,06,13,23,22.90
2018,08,06,13,24,22.90
2018,08,06,13,25,22.90
2018,08,06,13,26,23.00
2018,08,06,13,27,22.90
2018,08,06,13,28,22.90
2018,08,06,13,29,22.90
2018,08,06,13,30,22.90
2018,08,06,13,31,22.90
2018,08,06,13,32,22.90
2018,08,06,13,33,22.90
2018,08,06,13,34,23.00
2018,08,06,13,35,23.10
2018,08,06,13,36,23.10
2018,08,06,13,37,23.20
2018,08,06,13,38,23.20
2018,08,06,13,39,23.20
2018,08,06,13,40,23.20
2018,08,06,13,41,23.20
2018,08,06,13,42,23.20
2018,08,06,13,43,23.20
2018,08,06,13,44,23.30
2018,08,06,13,45,23.30
2018,08,06,13,46,23.50
2018,08,06,13,47,23.60
2018,08,06,13,48,23.70
2018,08,06,13,49,23.70
2018,08,06,13,50,23.60
2018,08,06,13,51,23.60
2018,08,06,13,52,23.40
2018,08,06,13,53,23.50
2018,08,06,13,54,23.60
2018,08,06,13,55,23.70
2018,08,06,13,56,23.70
2018,08,06,13,57,23.70
2018,08,06,13,58,23.80
2018,08,06,13,59,24.00
2018,08,06,14,00,24.10
2018,08,06,14,01,24.20
2018,08,06,14,02,24.40
2018,08,06,14,03,24.50
2018,08,06,14,04,24.60
2018,08,06,14,05,24.70
2018,08,06,14,06,24.80
2018,08,06,14,07,24.80
2018,08,06,14,08,24.80
2018,08,06,14,09,24.80
2018,08,06,14,10,24.90
2018,08,06,14,11,25.00
2018,08,06,14,12,25.10
2018,08,06,14,13,25.10
2018,08,06,14,14,25.20
2018,08,06,14,15,25.30
2018,08,06,14,16,25.40
2018,08,06,14,17,25.60
2018,08,06,14,18,25.80
2018,08,06,14,19,25.90
2018,08,06,14,20,25.90
2018,08,06,14,21,26.00
2018,08,06,14,22,26.10
2018,08,06,14,23,26.20
2018,08,06,14,24,26.30
2018,08,06,14,25,26.40
2018,08,06,14,26,26.40
2018,08,06,14,27,26.40
2018,08,06,14,28,26.50
2018,08,06,14,29,26.60
2018,08,06,14,30,26.60
2018,08,06,14,31,26.60
2018,08,06,14,32,26.70
2018,08,06,14,33,26.70
2018,08,06,14,34,26.80
2018,08,06,14,35,26.90
2018,08,06,14,36,26.90
2018,08,06,14,37,27.00
2018,08,06,14,38,27.20
2018,08,06,14,39,27.30
2018,08,06,14,40,27.30
2018,08,06,14,41,27.30
2018,08,06,14,42,27.30
2018,08,06,14,43,27.30
2018,08,06,14,44,27.30
2018,08,06,14,45,27.30
2018,08,06,14,46,27.30
2018,08,06,14,47,27.30
2018,08,06,14,48,27.30
2018,08,06,14,49,27.30
2018,08,06,14,50,27.10
2018,08,06,14,51,27.10
2018,08,06,14,52,27.20
2018,08,06,14,53,27.30
2018,08,06,14,54,27.20
2018,08,06,14,55,27.20
2018,08,06,14,56,27.30
2018,08,06,14,57,27.20
2018,08,06,14,58,27.20
2018,08,06,14,59,27.20
2018,08,06,15,00,27.20
2018,08,06,15,01,27.30
2018,08,06,15,02,27.30
2018,08,06,15,03,27.40
2018,08,06,15,04,27.50
2018,08,06,15,05,27.70
2018,08,06,15,06,27.90
2018,08,06,15,07,28.10
2018,08,06,15,08,28.20
2018,08,06,15,09,28.30
2018,08,06,15,10,28.30
2018,08,06,15,11,28.20
2018,08,06,15,12,28.20
2018,08,06,15,13,28.20
2018,08,06,15,14,28.30
2018,08,06,15,15,28.30
2018,08,06,15,16,28.20
2018,08,06,15,17,28.00
2018,08,06,15,18,27.90
2018,08,06,15,19,27.90
2018,08,06,15,20,27.90
2018,08,06,15,21,27.90
2018,08,06,15,22,27.90
2018,08,06,15,23,27.90
2018,08,06,15,24,27.90
2018,08,06,15,25,27.90
2018,08,06,15,26,28.00
2018,08,06,15,27,27.90
2018,08,06,15,28,27.80
2018,08,06,15,29,27.80
2018,08,06,15,30,27.90
2018,08,06,15,31,28.00
2018,08,06,15,32,28.00
2018,08,06,15,33,27.90
2018,08,06,15,34,27.90
2018,08,06,15,35,27.90
2018,08,06,15,36,27.80
2018,08,06,15,37,27.80
2018,08,06,15,38,27.80
2018,08,06,15,39,27.80
2018,08,06,15,40,27.80
2018,08,06,15,41,27.80
2018,08,06,15,42,27.80
2018,08,06,15,43,27.70
2018,08,06,15,44,27.40
2018,08,06,15,45,27.30
2018,08,06,15,46,27.20
2018,08,06,15,47,27.10
2018,08,06,15,48,27.10
2018,08,06,15,49,27.10
2018,08,06,15,50,27.10
2018,08,06,15,51,27.00
2018,08,06,15,52,26.90
2018,08,06,15,53,27.00
2018,08,06,15,54,27.10
2018,08,06,15,55,27.10
2018,08,06,15,56,27.00
2018,08,06,15,57,26.90
2018,08,06,15,58,26.90
2018,08,06,15,59,26.90
2018,08,06,16,00,27.00
2018,08,06,16,01,27.10
2018,08,06,16,02,27.10
2018,08,06,16,03,27.10
2018,08,06,16,04,27.00
2018,08,06,16,05,26.90
2018,08,06,16,06,26.90
2018,08,06,16,07,27.00
2018,08,06,16,08,27.00
2018,08,06,16,09,27.00
2018,08,06,16,10,27.10
2018,08,06,16,11,27.10
2018,08,06,16,12,27.20
2018,08,06,16,13,27.20
2018,08,06,16,14,27.20
2018,08,06,16,15,27.20
2018,08,06,16,16,27.20
2018,08,06,16,17,27.20
2018,08,06,16,18,27.10
2018,08,06,16,19,27.10
2018,08,06,16,20,27.10
2018,08,06,16,21,27.20
2018,08,06,16,22,27.30
2018,08,06,16,23,27.30
2018,08,06,16,24,27.40
2018,08,06,16,25,27.60
2018,08,06,16,26,27.60
2018,08,06,16,27,27.70
2018,08,06,16,28,27.70
2018,08,06,16,29,27.70
2018,08,06,16,30,27.70
2018,08,06,16,31,27.70
2018,08,06,16,32,27.70
2018,08,06,16,33,27.60
2018,08,06,16,34,27.60
2018,08,06,16,35,27.60
2018,08,06,16,36,27.60
2018,08,06,16,37,27.60
2018,08,06,16,38,27.60
2018,08,06,16,39,27.70
2018,08,06,16,40,27.70
2018,08,06,16,41,27.70
2018,08,06,16,42,27.70
2018,08,06,16,43,27.70
2018,08,06,16,44,27.70
2018,08,06,16,45,27.70
2018,08,06,16,46,27.70
2018,08,06,16,47,27.80
2018,08,06,16,48,27.80
2018,08,06,16,49,27.80
2018,08,06,16,50,27.80
2018,08,06,16,51,27.90
2018,08,06,16,52,27.90
2018,08,06,16,53,28.00
2018,08,06,16,54,28.00
2018,08,06,16,55,28.00
2018,08,06,16,56,28.10
2018,08,06,16,57,28.00
2018,08,06,16,58,28.00
2018,08,06,16,59,28.00
2018,08,06,17,00,28.00
2018,08,06,17,01,28.00
2018,08,06,17,02,28.00
2018,08,06,17,03,28.10
2018,08,06,17,04,28.10
2018,08,06,17,05,28.20
2018,08,06,17,06,28.30
2018,08,06,17,07,28.40
2018,08,06,17,08,28.40
2018,08,06,17,09,28.40
2018,08,06,17,10,28.40
2018,08,06,17,11,28.40
2018,08,06,17,12,28.30
2018,08,06,17,13,28.30
2018,08,06,17,14,28.30
2018,08,06,17,15,28.30
2018,08,06,17,16,28.40
2018,08,06,17,17,28.40
2018,08,06,17,18,28.50
2018,08,06,17,19,28.60